Weather History for Scarborough, Trinidad And Tobago

Change the Weather History Date:

Sunday, February 24, 2013

  Actual Average Record
Temperature  
Mean Temperature 80 °F -  
Max Temperature 84 °F 83 °F 87 °F (1998)
Min Temperature 73 °F 73 °F 71 °F (2004)
Cooling Degree Days 14    
Growing Degree Days 30 (Base 50)    
Moisture  
Dew Point 68 °F    
Average Humidity 71    
Maximum Humidity 83    
Minimum Humidity 58    
Precipitation  
Precipitation 0.00 in - - ()
Sea Level Pressure  
Sea Level Pressure 29.93 in    
Wind  
Wind Speed 7 mph ()    
Max Wind Speed 17 mph    
Max Gust Speed -    
Visibility 6.2 miles    
Events      
Averages and records for this station are not official NWS values.
T = Trace of Precipitation, MM = Missing Value Source: Averaged Metar Reports

Daily Weather History Graph

Daily Weather History Graph

Search for Another Location

Airport:

Trip Planner

Search our weather history database for the weather conditions in past years. The results will help you decide how hot, cold, wet, or windy it might be!

Date:

Astronomy

Feb. 24, 2013 Rise Set
Actual Time 6:20 AM AST 6:12 PM AST
Civil Twilight 5:59 AM AST 6:33 PM AST
Nautical Twilight 5:34 AM AST 6:58 PM AST
Astronomical Twilight 5:09 AM AST 7:23 PM AST
Moon 5:18 PM AST (2/24) 5:10 AM AST (2/24)
Length of Visible Light 12h 34m
Length of Day
11h 52m
Waxing Gibbous, 98% of the Moon is Illuminated
Feb 24
Waxing Gibbous
Feb 25
Full
Mar 4
Last Quarter
Mar 11
New
Mar 19
First Quarter

Hourly Weather History & Observations

Time (AST) Temp. Heat Index Dew Point Humidity Pressure Visibility Wind Dir Wind Speed Gust Speed Precip Events Conditions
12:00 AM 77.0 °F - 69.8 °F 78% 29.95 in 6.2 mi ENE 5.8 mph - N/A   Scattered Clouds
1:00 AM 77.0 °F - 68.0 °F 74% 29.92 in 6.2 mi ENE 11.5 mph - N/A   Scattered Clouds
2:00 AM 77.0 °F - 68.0 °F 74% 29.92 in 6.2 mi East 8.1 mph - N/A   Scattered Clouds
3:00 AM 77.0 °F - 69.8 °F 78% 29.89 in 6.2 mi Calm Calm - N/A   Mostly Cloudy
4:00 AM 75.2 °F - 69.8 °F 83% 29.89 in 6.2 mi Calm Calm - N/A   Scattered Clouds
5:00 AM 75.2 °F - 69.8 °F 83% 29.92 in 6.2 mi East 16.1 mph - N/A   Mostly Cloudy
6:00 AM 75.2 °F - 69.8 °F 83% 29.92 in 6.2 mi Calm Calm - N/A   Mostly Cloudy
7:00 AM 77.0 °F - 69.8 °F 78% 29.95 in 6.2 mi East 11.5 mph - N/A   Scattered Clouds
8:00 AM 78.8 °F - 69.8 °F 74% 29.95 in 6.2 mi East 9.2 mph - N/A   Scattered Clouds
9:00 AM 82.4 °F 85.4 °F 68.0 °F 62% 29.98 in 6.2 mi East 13.8 mph - N/A   Mostly Cloudy
10:00 AM 84.2 °F 87.3 °F 68.0 °F 58% 29.98 in 6.2 mi East 13.8 mph - N/A   Scattered Clouds
11:00 AM 82.4 °F 86.3 °F 69.8 °F 66% 29.98 in 6.2 mi ENE 12.7 mph - N/A   Mostly Cloudy
12:00 PM 80.6 °F 83.2 °F 68.0 °F 65% 29.95 in 6.2 mi NE 10.4 mph - N/A   Mostly Cloudy
1:00 PM 80.6 °F 83.2 °F 68.0 °F 65% 29.92 in 6.2 mi NE 11.5 mph - N/A   Mostly Cloudy
2:00 PM 82.4 °F 84.6 °F 66.2 °F 58% 29.92 in 6.2 mi East 17.3 mph - N/A   Mostly Cloudy
3:00 PM 80.6 °F 83.2 °F 68.0 °F 65% 29.89 in 6.2 mi ENE 9.2 mph - N/A   Mostly Cloudy
4:00 PM 80.6 °F 83.2 °F 68.0 °F 65% 29.89 in 6.2 mi NE 9.2 mph - N/A   Mostly Cloudy
5:00 PM 80.6 °F 83.9 °F 69.8 °F 70% 29.89 in 6.2 mi NE 8.1 mph - N/A   Mostly Cloudy
6:00 PM 80.6 °F 83.2 °F 68.0 °F 65% 29.89 in 6.2 mi ENE 4.6 mph - N/A   Scattered Clouds
8:00 PM 77.0 °F - 66.2 °F 69% 29.92 in 6.2 mi NE 3.5 mph - N/A   Partly Cloudy
9:00 PM 75.2 °F - 66.2 °F 73% 29.92 in 6.2 mi Calm Calm - N/A   Partly Cloudy
10:00 PM 75.2 °F - 66.2 °F 73% 29.95 in 6.2 mi Calm Calm - N/A   Partly Cloudy
11:00 PM 73.4 °F - 66.2 °F 78% 29.95 in 6.2 mi NE 3.5 mph - N/A   Scattered Clouds